Time,TemperatureF,DewpointF,PressureIn,WindDirection,WindDirectionDegrees,WindSpeedMPH,WindSpeedGustMPH,Humidity,HourlyPrecipIn,Conditions,Clouds,dailyrainin,SoftwareType,DateUTC
2013-03-01 00:00:00,24.6,20.5,30.28,NNE,23,5.0,8.0,84,0.00,,,0.00,Wunderground v.1.15,2013-03-01 06:00:00,
2013-03-01 00:05:00,24.5,20.1,30.28,North,354,6.0,8.0,83,0.00,,,0.00,Wunderground v.1.15,2013-03-01 06:05:00,
2013-03-01 00:15:00,24.5,19.8,30.29,NNW,343,8.0,8.0,82,0.00,,,0.00,Wunderground v.1.15,2013-03-01 06:15:00,
2013-03-01 00:20:00,24.4,19.7,30.28,North,10,9.0,9.0,82,0.00,,,0.00,Wunderground v.1.15,2013-03-01 06:20:00,
2013-03-01 00:30:00,24.4,20.0,30.29,North,356,8.0,8.0,83,0.00,,,0.00,Wunderground v.1.15,2013-03-01 06:30:00,
2013-03-01 00:40:00,24.3,19.6,30.29,NNE,18,9.0,9.0,82,0.00,,,0.00,Wunderground v.1.15,2013-03-01 06:40:00,
2013-03-01 00:50:00,24.3,19.9,30.29,NNE,13,7.0,7.0,83,0.00,,,0.00,Wunderground v.1.15,2013-03-01 06:50:00,
2013-03-01 01:30:00,24.3,19.6,30.29,NNE,18,7.0,9.0,82,0.00,,,0.00,Wunderground v.1.15,2013-03-01 07:30:00,
2013-03-01 01:40:00,24.4,19.7,30.29,NW,321,8.0,8.0,82,0.00,,,0.00,Wunderground v.1.15,2013-03-01 07:40:00,
2013-03-01 01:45:00,24.4,19.7,30.29,NNW,339,7.0,8.0,82,0.00,,,0.00,Wunderground v.1.15,2013-03-01 07:45:00,
2013-03-01 01:50:00,24.4,19.4,30.29,NNW,335,8.0,10.0,81,0.00,,,0.00,Wunderground v.1.15,2013-03-01 07:50:00,
2013-03-01 02:00:00,24.4,19.7,30.30,NW,321,7.0,8.0,82,0.00,,,0.00,Wunderground v.1.15,2013-03-01 08:00:00,
2013-03-01 02:10:00,24.4,19.7,30.30,NNW,330,7.0,7.0,82,0.00,,,0.00,Wunderground v.1.15,2013-03-01 08:10:00,
2013-03-01 02:20:00,24.4,19.7,30.29,North,10,6.0,6.0,82,0.00,,,0.00,Wunderground v.1.15,2013-03-01 08:20:00,
2013-03-01 02:30:00,24.4,19.7,30.29,NNW,335,6.0,8.0,82,0.00,,,0.00,Wunderground v.1.15,2013-03-01 08:30:00,
2013-03-01 02:35:00,24.5,19.5,30.29,NNE,23,7.0,8.0,81,0.00,,,0.00,Wunderground v.1.15,2013-03-01 08:35:00,
2013-03-01 02:45:00,24.5,19.8,30.29,NNE,26,7.0,8.0,82,0.00,,,0.00,Wunderground v.1.15,2013-03-01 08:45:00,
2013-03-01 02:55:00,24.4,20.0,30.29,North,352,7.0,7.0,83,0.00,,,0.00,Wunderground v.1.15,2013-03-01 08:55:00,
2013-03-01 03:00:00,24.4,19.7,30.29,North,352,8.0,9.0,82,0.00,,,0.00,Wunderground v.1.15,2013-03-01 09:00:00,
2013-03-01 03:10:00,24.4,19.4,30.29,NNE,19,7.0,7.0,81,0.00,,,0.00,Wunderground v.1.15,2013-03-01 09:10:00,
2013-03-01 03:20:00,24.3,19.6,30.29,NW,325,7.0,7.0,82,0.00,,,0.00,Wunderground v.1.15,2013-03-01 09:20:00,
2013-03-01 03:30:00,24.3,19.3,30.29,NNW,343,8.0,8.0,81,0.00,,,0.00,Wunderground v.1.15,2013-03-01 09:30:00,
2013-03-01 03:40:00,24.2,19.5,30.29,North,352,7.0,7.0,82,0.00,,,0.00,Wunderground v.1.15,2013-03-01 09:40:00,
2013-03-01 03:50:00,24.2,19.5,30.29,NNW,347,6.0,7.0,82,0.00,,,0.00,Wunderground v.1.15,2013-03-01 09:50:00,
2013-03-01 04:00:00,24.1,19.4,30.29,NW,316,6.0,8.0,82,0.00,,,0.00,Wunderground v.1.15,2013-03-01 10:00:00,
2013-03-01 04:10:00,24.0,19.3,30.29,North,352,6.0,10.0,82,0.00,,,0.00,Wunderground v.1.15,2013-03-01 10:10:00,
2013-03-01 04:20:00,23.9,18.9,30.29,North,6,8.0,8.0,81,0.00,,,0.00,Wunderground v.1.15,2013-03-01 10:20:00,
2013-03-01 04:30:00,23.9,19.2,30.29,NNE,13,6.0,6.0,82,0.00,,,0.00,Wunderground v.1.15,2013-03-01 10:30:00,
2013-03-01 04:40:00,23.8,19.1,30.30,NNW,337,7.0,7.0,82,0.00,,,0.00,Wunderground v.1.15,2013-03-01 10:40:00,
2013-03-01 04:50:00,23.8,19.1,30.30,NW,325,7.0,7.0,82,0.00,,,0.00,Wunderground v.1.15,2013-03-01 10:50:00,
2013-03-01 05:00:00,23.7,19.0,30.30,NNW,342,8.0,8.0,82,0.00,,,0.00,Wunderground v.1.15,2013-03-01 11:00:00,
2013-03-01 05:10:00,23.5,18.8,30.30,NNW,340,9.0,9.0,82,0.00,,,0.00,Wunderground v.1.15,2013-03-01 11:10:00,
2013-03-01 05:15:00,23.4,18.4,30.30,NNW,339,8.0,9.0,81,0.00,,,0.00,Wunderground v.1.15,2013-03-01 11:15:00,
2013-03-01 05:25:00,23.2,18.5,30.30,NNW,343,6.0,6.0,82,0.00,,,0.00,Wunderground v.1.15,2013-03-01 11:25:00,
2013-03-01 05:35:00,23.1,18.4,30.30,NNW,335,7.0,9.0,82,0.00,,,0.00,Wunderground v.1.15,2013-03-01 11:35:00,
2013-03-01 05:45:00,23.1,18.7,30.31,NNW,340,7.0,10.0,83,0.00,,,0.00,Wunderground v.1.15,2013-03-01 11:45:00,
2013-03-01 05:55:00,23.0,18.3,30.31,NW,314,8.0,8.0,82,0.00,,,0.00,Wunderground v.1.15,2013-03-01 11:55:00,
2013-03-01 06:00:00,22.9,18.5,30.31,NNW,332,8.0,8.0,83,0.00,,,0.00,Wunderground v.1.15,2013-03-01 12:00:00,
2013-03-01 06:10:00,22.9,18.5,30.31,NNW,335,7.0,7.0,83,0.00,,,0.00,Wunderground v.1.15,2013-03-01 12:10:00,
2013-03-01 06:20:00,22.8,18.7,30.31,WNW,289,8.0,8.0,84,0.00,,,0.00,Wunderground v.1.15,2013-03-01 12:20:00,
2013-03-01 06:30:00,22.7,18.6,30.31,NNW,348,8.0,8.0,84,0.00,,,0.00,Wunderground v.1.15,2013-03-01 12:30:00,
2013-03-01 06:40:00,22.6,18.8,30.31,North,360,7.0,7.0,85,0.00,,,0.00,Wunderground v.1.15,2013-03-01 12:40:00,
2013-03-01 06:50:00,22.5,18.7,30.31,NNE,33,7.0,7.0,85,0.00,,,0.00,Wunderground v.1.15,2013-03-01 12:50:00,
2013-03-01 07:00:00,22.5,18.7,30.31,NW,322,7.0,7.0,85,0.00,,,0.00,Wunderground v.1.15,2013-03-01 13:00:00,
2013-03-01 07:10:00,22.5,18.4,30.31,NNW,338,8.0,8.0,84,0.00,,,0.00,Wunderground v.1.15,2013-03-01 13:10:00,
2013-03-01 07:15:00,22.5,18.4,30.31,NW,307,7.0,8.0,84,0.00,,,0.00,Wunderground v.1.15,2013-03-01 13:15:00,
2013-03-01 07:25:00,22.6,18.5,30.32,NW,316,7.0,11.0,84,0.00,,,0.00,Wunderground v.1.15,2013-03-01 13:25:00,
2013-03-01 07:35:00,22.7,18.6,30.32,NNW,332,7.0,9.0,84,0.00,,,0.00,Wunderground v.1.15,2013-03-01 13:35:00,
2013-03-01 07:40:00,22.7,18.9,30.32,NW,325,7.0,7.0,85,0.00,,,0.00,Wunderground v.1.15,2013-03-01 13:40:00,
2013-03-01 07:45:00,22.7,18.9,30.32,NNW,341,8.0,14.0,85,0.00,,,0.00,Wunderground v.1.15,2013-03-01 13:45:00,
2013-03-01 07:55:00,22.8,19.0,30.33,NW,313,8.0,10.0,85,0.00,,,0.00,Wunderground v.1.15,2013-03-01 13:55:00,
2013-03-01 08:00:00,22.9,19.1,30.33,North,360,8.0,8.0,85,0.00,,,0.00,Wunderground v.1.15,2013-03-01 14:00:00,
2013-03-01 08:10:00,23.0,19.2,30.33,North,4,8.0,12.0,85,0.00,,,0.00,Wunderground v.1.15,2013-03-01 14:10:00,
2013-03-01 08:15:00,23.1,19.3,30.33,NNW,344,9.0,12.0,85,0.00,,,0.00,Wunderground v.1.15,2013-03-01 14:15:00,
2013-03-01 08:25:00,23.2,19.4,30.33,NNW,330,9.0,11.0,85,0.00,,,0.00,Wunderground v.1.15,2013-03-01 14:25:00,
2013-03-01 08:35:00,23.3,19.5,30.33,NNW,330,9.0,11.0,85,0.00,,,0.00,Wunderground v.1.15,2013-03-01 14:35:00,
2013-03-01 08:45:00,23.4,19.6,30.33,NNW,332,7.0,9.0,85,0.00,,,0.00,Wunderground v.1.15,2013-03-01 14:45:00,
2013-03-01 08:55:00,23.3,20.0,30.34,NNW,328,8.0,8.0,87,0.00,,,0.00,Wunderground v.1.15,2013-03-01 14:55:00,
2013-03-01 09:00:00,23.4,19.8,30.34,NNW,343,8.0,8.0,86,0.00,,,0.00,Wunderground v.1.15,2013-03-01 15:00:00,
2013-03-01 09:10:00,23.5,20.2,30.35,NNE,13,8.0,11.0,87,0.00,,,0.00,Wunderground v.1.15,2013-03-01 15:10:00,
2013-03-01 09:20:00,23.6,20.6,30.34,NNW,347,8.0,8.0,88,0.00,,,0.00,Wunderground v.1.15,2013-03-01 15:20:00,
2013-03-01 09:30:00,23.8,21.0,30.35,NNW,335,8.0,8.0,89,0.00,,,0.00,Wunderground v.1.15,2013-03-01 15:30:00,
2013-03-01 09:40:00,24.0,21.0,30.35,NNE,13,7.0,12.0,88,0.00,,,0.00,Wunderground v.1.15,2013-03-01 15:40:00,
2013-03-01 09:45:00,24.2,20.9,30.35,NNW,342,7.0,12.0,87,0.00,,,0.00,Wunderground v.1.15,2013-03-01 15:45:00,
2013-03-01 09:55:00,24.4,20.8,30.35,NNW,328,8.0,13.0,86,0.00,,,0.00,Wunderground v.1.15,2013-03-01 15:55:00,
2013-03-01 10:00:00,24.4,21.1,30.35,NNW,331,8.0,8.0,87,0.00,,,0.00,Wunderground v.1.15,2013-03-01 16:00:00,
2013-03-01 10:05:00,24.6,21.3,30.35,North,360,8.0,10.0,87,0.00,,,0.00,Wunderground v.1.15,2013-03-01 16:05:00,
2013-03-01 10:15:00,24.7,21.4,30.35,North,354,8.0,8.0,87,0.00,,,0.00,Wunderground v.1.15,2013-03-01 16:15:00,
2013-03-01 10:20:00,25.0,21.4,30.35,NNE,13,7.0,12.0,86,0.00,,,0.00,Wunderground v.1.15,2013-03-01 16:20:00,
2013-03-01 10:30:00,25.2,21.6,30.35,NNW,335,7.0,7.0,86,0.00,,,0.00,Wunderground v.1.15,2013-03-01 16:30:00,
2013-03-01 10:40:00,25.4,21.5,30.35,North,11,7.0,10.0,85,0.00,,,0.00,Wunderground v.1.15,2013-03-01 16:40:00,
2013-03-01 10:50:00,25.8,21.6,30.35,North,4,8.0,8.0,84,0.00,,,0.00,Wunderground v.1.15,2013-03-01 16:50:00,
2013-03-01 11:00:00,26.3,21.6,30.35,NW,323,8.0,8.0,82,0.00,,,0.00,Wunderground v.1.15,2013-03-01 17:00:00,
2013-03-01 11:10:00,27.1,21.7,30.35,North,359,8.0,10.0,80,0.00,,,0.00,Wunderground v.1.15,2013-03-01 17:10:00,
2013-03-01 11:15:00,27.0,20.7,30.35,NNE,15,9.0,10.0,77,0.00,,,0.00,Wunderground v.1.15,2013-03-01 17:15:00,
2013-03-01 11:25:00,27.0,21.1,30.35,NNE,33,9.0,10.0,78,0.00,,,0.00,Wunderground v.1.15,2013-03-01 17:25:00,
2013-03-01 11:35:00,27.2,20.0,30.35,North,349,11.0,11.0,74,0.00,,,0.00,Wunderground v.1.15,2013-03-01 17:35:00,
2013-03-01 11:45:00,27.3,20.1,30.35,NNE,19,10.0,10.0,74,0.00,,,0.00,Wunderground v.1.15,2013-03-01 17:45:00,
2013-03-01 11:55:00,27.5,19.7,30.35,NNE,27,11.0,14.0,72,0.00,,,0.00,Wunderground v.1.15,2013-03-01 17:55:00,
2013-03-01 12:00:00,27.4,19.2,30.35,North,3,11.0,13.0,71,0.00,,,0.00,Wunderground v.1.15,2013-03-01 18:00:00,
2013-03-01 12:10:00,27.6,20.4,30.35,North,352,12.0,12.0,74,0.00,,,0.00,Wunderground v.1.15,2013-03-01 18:10:00,
2013-03-01 12:15:00,27.6,19.4,30.35,NNE,18,10.0,15.0,71,0.00,,,0.00,Wunderground v.1.15,2013-03-01 18:15:00,
2013-03-01 12:25:00,28.0,19.5,30.35,NNW,347,11.0,12.0,70,0.00,,,0.00,Wunderground v.1.15,2013-03-01 18:25:00,
2013-03-01 12:35:00,28.5,19.3,30.34,NNW,340,10.0,10.0,68,0.00,,,0.00,Wunderground v.1.15,2013-03-01 18:35:00,
2013-03-01 12:45:00,28.4,19.2,30.35,NW,319,10.0,11.0,68,0.00,,,0.00,Wunderground v.1.15,2013-03-01 18:45:00,
2013-03-01 12:55:00,28.3,19.8,30.35,North,352,10.0,11.0,70,0.00,,,0.00,Wunderground v.1.15,2013-03-01 18:55:00,
2013-03-01 13:00:00,28.5,20.6,30.34,NNE,26,9.0,9.0,72,0.00,,,0.00,Wunderground v.1.15,2013-03-01 19:00:00,
2013-03-01 13:10:00,28.1,19.9,30.34,North,354,10.0,10.0,71,0.00,,,0.00,Wunderground v.1.15,2013-03-01 19:10:00,
2013-03-01 13:20:00,28.3,20.4,30.34,North,9,9.0,15.0,72,0.00,,,0.00,Wunderground v.1.15,2013-03-01 19:20:00,
2013-03-01 13:30:00,28.3,19.8,30.34,NNE,28,10.0,10.0,70,0.00,,,0.00,Wunderground v.1.15,2013-03-01 19:30:00,
2013-03-01 13:40:00,28.1,20.2,30.34,North,354,11.0,11.0,72,0.00,,,0.00,Wunderground v.1.15,2013-03-01 19:40:00,
2013-03-01 13:45:00,28.1,19.9,30.34,NNE,28,11.0,14.0,71,0.00,,,0.00,Wunderground v.1.15,2013-03-01 19:45:00,
2013-03-01 13:55:00,28.2,20.0,30.34,NE,34,11.0,12.0,71,0.00,,,0.00,Wunderground v.1.15,2013-03-01 19:55:00,
2013-03-01 14:00:00,28.6,20.7,30.33,NNE,16,9.0,9.0,72,0.00,,,0.00,Wunderground v.1.15,2013-03-01 20:00:00,
2013-03-01 14:10:00,28.5,20.0,30.33,NNE,22,11.0,14.0,70,0.00,,,0.00,Wunderground v.1.15,2013-03-01 20:10:00,
2013-03-01 14:20:00,28.3,19.8,30.33,North,4,14.0,18.0,70,0.00,,,0.00,Wunderground v.1.15,2013-03-01 20:20:00,
2013-03-01 14:30:00,28.5,20.6,30.33,North,358,12.0,12.0,72,0.00,,,0.00,Wunderground v.1.15,2013-03-01 20:30:00,
2013-03-01 14:40:00,28.9,21.0,30.33,NNW,348,11.0,12.0,72,0.00,,,0.00,Wunderground v.1.15,2013-03-01 20:40:00,
2013-03-01 14:50:00,28.4,20.2,30.33,NNE,30,14.0,14.0,71,0.00,,,0.00,Wunderground v.1.15,2013-03-01 20:50:00,
2013-03-01 15:00:00,28.3,20.4,30.33,NNE,15,13.0,13.0,72,0.00,,,0.00,Wunderground v.1.15,2013-03-01 21:00:00,
2013-03-01 15:10:00,28.1,20.2,30.33,North,1,13.0,14.0,72,0.00,,,0.00,Wunderground v.1.15,2013-03-01 21:10:00,
2013-03-01 15:15:00,28.1,20.2,30.34,North,10,12.0,14.0,72,0.00,,,0.00,Wunderground v.1.15,2013-03-01 21:15:00,
2013-03-01 15:25:00,27.9,19.0,30.34,NE,47,14.0,14.0,69,0.00,,,0.00,Wunderground v.1.15,2013-03-01 21:25:00,
2013-03-01 15:35:00,28.1,19.9,30.34,NNE,16,10.0,13.0,71,0.00,,,0.00,Wunderground v.1.15,2013-03-01 21:35:00,
2013-03-01 15:45:00,27.8,19.3,30.34,North,10,13.0,15.0,70,0.00,,,0.00,Wunderground v.1.15,2013-03-01 21:45:00,
2013-03-01 15:55:00,27.7,19.2,30.34,NNE,18,12.0,15.0,70,0.00,,,0.00,Wunderground v.1.15,2013-03-01 21:55:00,
2013-03-01 16:00:00,27.5,18.7,30.34,NNE,30,12.0,12.0,69,0.00,,,0.00,Wunderground v.1.15,2013-03-01 22:00:00,
2013-03-01 16:10:00,27.6,18.8,30.34,NNE,16,12.0,12.0,69,0.00,,,0.00,Wunderground v.1.15,2013-03-01 22:10:00,
2013-03-01 16:20:00,28.0,18.8,30.35,North,359,11.0,11.0,68,0.00,,,0.00,Wunderground v.1.15,2013-03-01 22:20:00,
2013-03-01 16:30:00,27.7,18.8,30.35,NE,44,12.0,13.0,69,0.00,,,0.00,Wunderground v.1.15,2013-03-01 22:30:00,
2013-03-01 16:40:00,27.4,18.6,30.35,NNE,15,13.0,13.0,69,0.00,,,0.00,Wunderground v.1.15,2013-03-01 22:40:00,
2013-03-01 16:50:00,27.8,19.3,30.36,NNE,27,11.0,16.0,70,0.00,,,0.00,Wunderground v.1.15,2013-03-01 22:50:00,
2013-03-01 17:00:00,27.1,18.6,30.37,North,9,12.0,14.0,70,0.00,,,0.00,Wunderground v.1.15,2013-03-01 23:00:00,
2013-03-01 17:10:00,26.8,19.0,30.37,NNE,32,10.0,13.0,72,0.00,,,0.00,Wunderground v.1.15,2013-03-01 23:10:00,
2013-03-01 17:15:00,26.7,18.6,30.38,NNE,23,9.0,14.0,71,0.00,,,0.00,Wunderground v.1.15,2013-03-01 23:15:00,
2013-03-01 17:25:00,26.4,18.3,30.38,NNW,347,10.0,11.0,71,0.00,,,0.00,Wunderground v.1.15,2013-03-01 23:25:00,
2013-03-01 17:35:00,26.3,18.2,30.38,NNE,13,11.0,12.0,71,0.00,,,0.00,Wunderground v.1.15,2013-03-01 23:35:00,
2013-03-01 17:45:00,26.2,18.1,30.38,North,11,11.0,13.0,71,0.00,,,0.00,Wunderground v.1.15,2013-03-01 23:45:00,
2013-03-01 17:50:00,26.1,18.3,30.38,North,11,11.0,11.0,72,0.00,,,0.00,Wunderground v.1.15,2013-03-01 23:50:00,
2013-03-01 18:00:00,26.0,18.5,30.39,NE,36,10.0,10.0,73,0.00,,,0.00,Wunderground v.1.15,2013-03-02 00:00:00,
2013-03-01 18:10:00,25.9,18.7,30.39,NNE,33,9.0,9.0,74,0.00,,,0.00,Wunderground v.1.15,2013-03-02 00:10:00,
2013-03-01 18:15:00,25.8,18.7,30.39,NE,41,9.0,9.0,74,0.00,,,0.00,Wunderground v.1.15,2013-03-02 00:15:00,
2013-03-01 18:25:00,25.7,18.6,30.39,North,1,9.0,9.0,74,0.00,,,0.00,Wunderground v.1.15,2013-03-02 00:25:00,
2013-03-01 18:35:00,25.7,18.2,30.40,North,8,9.0,10.0,73,0.00,,,0.00,Wunderground v.1.15,2013-03-02 00:35:00,
2013-03-01 18:40:00,25.7,18.6,30.40,NNE,27,9.0,9.0,74,0.00,,,0.00,Wunderground v.1.15,2013-03-02 00:40:00,
2013-03-01 18:50:00,25.5,18.7,30.40,NNE,24,7.0,8.0,75,0.00,,,0.00,Wunderground v.1.15,2013-03-02 00:50:00,
2013-03-01 19:00:00,25.5,18.7,30.40,NNE,18,8.0,8.0,75,0.00,,,0.00,Wunderground v.1.15,2013-03-02 01:00:00,
2013-03-01 19:10:00,25.3,18.8,30.40,NNE,20,7.0,7.0,76,0.00,,,0.00,Wunderground v.1.15,2013-03-02 01:10:00,
2013-03-01 19:20:00,25.2,18.7,30.40,NNE,25,8.0,8.0,76,0.00,,,0.00,Wunderground v.1.15,2013-03-02 01:20:00,
2013-03-01 19:30:00,25.1,18.6,30.40,NE,46,7.0,7.0,76,0.00,,,0.00,Wunderground v.1.15,2013-03-02 01:30:00,
2013-03-01 19:40:00,25.0,18.8,30.41,North,8,8.0,8.0,77,0.00,,,0.00,Wunderground v.1.15,2013-03-02 01:40:00,
2013-03-01 19:50:00,24.9,18.4,30.41,NNE,16,7.0,9.0,76,0.00,,,0.00,Wunderground v.1.15,2013-03-02 01:50:00,
2013-03-01 20:00:00,24.9,18.1,30.41,NNE,23,9.0,9.0,75,0.00,,,0.00,Wunderground v.1.15,2013-03-02 02:00:00,
2013-03-01 20:10:00,24.8,18.3,30.41,North,5,7.0,10.0,76,0.00,,,0.00,Wunderground v.1.15,2013-03-02 02:10:00,
2013-03-01 20:15:00,24.7,18.2,30.41,NNE,18,8.0,10.0,76,0.00,,,0.00,Wunderground v.1.15,2013-03-02 02:15:00,
2013-03-01 20:25:00,24.5,18.0,30.41,North,10,8.0,10.0,76,0.00,,,0.00,Wunderground v.1.15,2013-03-02 02:25:00,
2013-03-01 20:35:00,24.3,18.1,30.41,NNE,18,8.0,9.0,77,0.00,,,0.00,Wunderground v.1.15,2013-03-02 02:35:00,
2013-03-01 20:45:00,24.2,18.0,30.41,NNE,21,7.0,7.0,77,0.00,,,0.00,Wunderground v.1.15,2013-03-02 02:45:00,
2013-03-01 20:55:00,24.0,17.5,30.41,North,9,8.0,8.0,76,0.00,,,0.00,Wunderground v.1.15,2013-03-02 02:55:00,
2013-03-01 21:00:00,23.9,17.4,30.42,North,10,9.0,12.0,76,0.00,,,0.00,Wunderground v.1.15,2013-03-02 03:00:00,
2013-03-01 21:10:00,23.7,17.5,30.42,NNE,18,8.0,8.0,77,0.00,,,0.00,Wunderground v.1.15,2013-03-02 03:10:00,
2013-03-01 21:20:00,23.5,17.3,30.42,NE,37,8.0,8.0,77,0.00,,,0.00,Wunderground v.1.15,2013-03-02 03:20:00,
2013-03-01 21:30:00,23.3,17.2,30.42,North,1,7.0,7.0,77,0.00,,,0.00,Wunderground v.1.15,2013-03-02 03:30:00,
2013-03-01 21:40:00,23.2,17.1,30.42,NNE,15,8.0,8.0,77,0.00,,,0.00,Wunderground v.1.15,2013-03-02 03:40:00,
2013-03-01 21:50:00,23.1,17.3,30.42,NNE,28,6.0,8.0,78,0.00,,,0.00,Wunderground v.1.15,2013-03-02 03:50:00,
2013-03-01 22:00:00,23.1,17.0,30.42,North,9,8.0,10.0,77,0.00,,,0.00,Wunderground v.1.15,2013-03-02 04:00:00,
2013-03-01 22:10:00,23.0,16.9,30.42,NE,40,8.0,8.0,77,0.00,,,0.00,Wunderground v.1.15,2013-03-02 04:10:00,
2013-03-01 22:20:00,22.8,16.7,30.42,NNE,16,9.0,9.0,77,0.00,,,0.00,Wunderground v.1.15,2013-03-02 04:20:00,
2013-03-01 22:30:00,22.6,16.5,30.43,NNE,16,9.0,9.0,77,0.00,,,0.00,Wunderground v.1.15,2013-03-02 04:30:00,
2013-03-01 22:35:00,22.4,16.3,30.43,ENE,58,9.0,9.0,77,0.00,,,0.00,Wunderground v.1.15,2013-03-02 04:35:00,
2013-03-01 22:45:00,22.2,16.1,30.43,NE,47,9.0,14.0,77,0.00,,,0.00,Wunderground v.1.15,2013-03-02 04:45:00,
2013-03-01 22:55:00,22.1,16.0,30.42,NNE,18,10.0,12.0,77,0.00,,,0.00,Wunderground v.1.15,2013-03-02 04:55:00,
2013-03-01 23:00:00,22.0,15.9,30.43,NNE,19,9.0,9.0,77,0.00,,,0.00,Wunderground v.1.15,2013-03-02 05:00:00,
2013-03-01 23:05:00,22.0,15.9,30.43,NNE,26,8.0,9.0,77,0.00,,,0.00,Wunderground v.1.15,2013-03-02 05:05:00,
2013-03-01 23:10:00,22.0,16.2,30.43,North,356,7.0,8.0,78,0.00,,,0.00,Wunderground v.1.15,2013-03-02 05:10:00,
2013-03-01 23:15:00,21.9,15.8,30.42,NNE,23,7.0,9.0,77,0.00,,,0.00,Wunderground v.1.15,2013-03-02 05:15:00,
2013-03-01 23:20:00,21.7,15.6,30.42,NNE,27,7.0,7.0,77,0.00,,,0.00,Wunderground v.1.15,2013-03-02 05:20:00,
2013-03-01 23:25:00,21.6,15.8,30.42,NNE,33,7.0,8.0,78,0.00,,,0.00,Wunderground v.1.15,2013-03-02 05:25:00,
2013-03-01 23:35:00,21.2,15.4,30.42,NNE,16,6.0,8.0,78,0.00,,,0.00,Wunderground v.1.15,2013-03-02 05:35:00,
2013-03-01 23:45:00,20.9,15.4,30.42,North,8,5.0,5.0,79,0.00,,,0.00,Wunderground v.1.15,2013-03-02 05:45:00,
2013-03-01 23:55:00,20.6,15.4,30.42,NNE,26,4.0,5.0,80,0.00,,,0.00,Wunderground v.1.15,2013-03-02 05:55:00,